LGL8691 LEPA-LIMJ

Flight info

Callsign LGL8691
Flight time 1h 7m
Altitude 34000
Route ISTER DCT NIVDA DCT OMEDA DCT RAPUR DCT TORTU DCT ERTEV DCT OLETI DCT UNITA
Aircraft B38M/M-SDE1FGHILORVWXY/HB1

Departure

Time 2026-05-07 06:44
Airport Palma de Mallorca Airport (LEPA)

Arrival

Time 2026-05-07 07:51
Airport Genoa Cristoforo Colombo Airport (LIMJ)
Time Latitude Longitude Altitude Speed Heading
2026-05-07 05:50 39.55004 2.73439 39 ft 0 kts 164°
2026-05-07 06:30 39.55015 2.73435 41 ft 4 kts 156°
2026-05-07 06:30 39.55033 2.73418 41 ft 4 kts 121°
2026-05-07 06:30 39.55037 2.73394 41 ft 4 kts 64°
2026-05-07 06:31 39.55035 2.73388 41 ft 1 kts 58°
2026-05-07 06:37 39.55038 2.73395 41 ft 2 kts 58°
2026-05-07 06:37 39.55051 2.73422 41 ft 5 kts 58°
2026-05-07 06:37 39.55083 2.73491 41 ft 12 kts 59°
2026-05-07 06:37 39.55131 2.73594 41 ft 14 kts 58°
2026-05-07 06:38 39.55178 2.73698 41 ft 10 kts 70°
2026-05-07 06:38 39.55164 2.73764 41 ft 7 kts 103°
2026-05-07 06:38 39.55183 2.73821 41 ft 6 kts 70°
2026-05-07 06:38 39.55181 2.73835 41 ft 1 kts 130°
2026-05-07 06:39 39.55150 2.73870 39 ft 12 kts 146°
2026-05-07 06:39 39.55050 2.73949 39 ft 20 kts 148°
2026-05-07 06:39 39.54924 2.74047 41 ft 22 kts 149°
2026-05-07 06:39 39.54837 2.74116 41 ft 10 kts 154°
2026-05-07 06:40 39.54773 2.74091 41 ft 11 kts 232°
2026-05-07 06:40 39.54729 2.73999 39 ft 13 kts 238°
2026-05-07 06:40 39.54678 2.73891 38 ft 15 kts 238°
2026-05-07 06:40 39.54619 2.73767 40 ft 17 kts 238°
2026-05-07 06:41 39.54554 2.73628 41 ft 19 kts 239°
2026-05-07 06:41 39.54506 2.73525 41 ft 20 kts 239°
2026-05-07 06:41 39.54429 2.73363 39 ft 22 kts 238°
2026-05-07 06:41 39.54356 2.73211 41 ft 10 kts 239°
2026-05-07 06:42 39.54314 2.73165 41 ft 9 kts 185°
2026-05-07 06:42 39.54271 2.73216 41 ft 10 kts 102°
2026-05-07 06:42 39.54268 2.73315 41 ft 12 kts 90°
2026-05-07 06:42 39.54267 2.73433 41 ft 14 kts 90°
2026-05-07 06:43 39.54319 2.73578 39 ft 34 kts 59°
2026-05-07 06:43 39.54575 2.74127 41 ft 106 kts 58°
2026-05-07 06:43 39.55072 2.75174 47 ft 163 kts 59°
2026-05-07 06:43 39.55680 2.76499 599 ft 173 kts 59°
2026-05-07 06:44 39.56303 2.77824 1468 ft 170 kts 58°
2026-05-07 06:44 39.56959 2.79090 2167 ft 171 kts 58°
2026-05-07 06:44 39.57608 2.80473 2559 ft 190 kts 60°
2026-05-07 06:44 39.58296 2.82033 3077 ft 202 kts 62°
2026-05-07 06:45 39.58935 2.83611 3947 ft 197 kts 64°
2026-05-07 06:45 39.59622 2.85225 4462 ft 214 kts 59°
2026-05-07 06:45 39.60424 2.86890 5130 ft 218 kts 59°
2026-05-07 06:45 39.61218 2.88564 5876 ft 220 kts 60°
2026-05-07 06:46 39.62023 2.90283 6527 ft 226 kts 61°
2026-05-07 06:46 39.62835 2.92126 6911 ft 247 kts 62°
2026-05-07 06:46 39.63710 2.94137 7304 ft 265 kts 62°
2026-05-07 06:46 39.64639 2.96282 7759 ft 278 kts 62°
2026-05-07 06:47 39.65586 2.98473 8508 ft 280 kts 62°
2026-05-07 06:47 39.66547 3.00699 9193 ft 285 kts 62°
2026-05-07 06:47 39.67522 3.02959 9856 ft 290 kts 62°
2026-05-07 06:47 39.68517 3.05271 10389 ft 300 kts 62°
2026-05-07 06:48 39.69571 3.07720 10643 ft 320 kts 62°
2026-05-07 06:48 39.70682 3.10301 11039 ft 334 kts 62°
2026-05-07 06:48 39.71828 3.12967 11613 ft 340 kts 62°
2026-05-07 06:48 39.72988 3.15669 12306 ft 345 kts 62°
2026-05-07 06:49 39.74166 3.18416 12949 ft 351 kts 62°
2026-05-07 06:49 39.75361 3.21203 13636 ft 355 kts 61°
2026-05-07 06:49 39.76571 3.24027 14320 ft 360 kts 61°
2026-05-07 06:49 39.77511 3.27042 15000 ft 362 kts 80°
2026-05-07 06:50 39.77854 3.30292 15663 ft 366 kts 83°
2026-05-07 06:50 39.78195 3.33598 16291 ft 371 kts 83°
2026-05-07 06:50 39.78528 3.36935 16944 ft 374 kts 84°
2026-05-07 06:50 39.78857 3.40309 17527 ft 379 kts 84°
2026-05-07 06:51 39.79185 3.43726 18136 ft 383 kts 84°
2026-05-07 06:51 39.79515 3.47184 18697 ft 387 kts 84°
2026-05-07 06:51 39.79847 3.50674 19249 ft 392 kts 84°
2026-05-07 06:51 39.80182 3.54208 19770 ft 396 kts 84°
2026-05-07 06:52 39.80515 3.57738 20253 ft 401 kts 84°
2026-05-07 06:52 39.80856 3.61355 20756 ft 405 kts 84°
2026-05-07 06:52 39.81204 3.65057 21256 ft 409 kts 84°
2026-05-07 06:52 39.81549 3.68747 21739 ft 413 kts 84°
2026-05-07 06:53 39.81896 3.72472 22214 ft 417 kts 84°
2026-05-07 06:53 39.82240 3.76187 22681 ft 421 kts 84°
2026-05-07 06:53 39.82596 3.80036 23136 ft 425 kts 84°
2026-05-07 06:53 39.82951 3.83879 23588 ft 429 kts 84°
2026-05-07 06:54 39.83306 3.87752 24029 ft 433 kts 85°
2026-05-07 06:54 39.83660 3.91609 24456 ft 437 kts 85°
2026-05-07 06:54 39.84018 3.95551 24885 ft 441 kts 85°
2026-05-07 06:54 39.84380 3.99534 25309 ft 445 kts 85°
2026-05-07 06:55 39.84743 4.03552 25700 ft 449 kts 85°
2026-05-07 06:55 39.85108 4.07606 26103 ft 453 kts 85°
2026-05-07 06:55 39.85475 4.11688 26493 ft 456 kts 85°
2026-05-07 06:55 39.85844 4.15808 26869 ft 460 kts 85°
2026-05-07 06:56 39.86304 4.19942 27196 ft 466 kts 77°
2026-05-07 06:56 39.87484 4.23872 27596 ft 469 kts 61°
2026-05-07 06:56 39.89097 4.27585 27882 ft 474 kts 60°
2026-05-07 06:56 39.90740 4.31336 28176 ft 478 kts 59°
2026-05-07 06:57 39.92407 4.35094 28558 ft 480 kts 59°
2026-05-07 06:57 39.94091 4.38869 28826 ft 485 kts 59°
2026-05-07 06:57 39.95793 4.42682 29133 ft 488 kts 59°
2026-05-07 06:57 39.97505 4.46519 29441 ft 491 kts 59°
2026-05-07 06:58 39.99227 4.50382 29737 ft 495 kts 59°
2026-05-07 06:58 40.00960 4.54276 30040 ft 498 kts 59°
2026-05-07 06:58 40.02703 4.58197 30354 ft 500 kts 59°
2026-05-07 06:58 40.04448 4.62125 30698 ft 502 kts 59°
2026-05-07 06:59 40.06216 4.66061 30998 ft 504 kts 56°
2026-05-07 06:59 40.08369 4.69666 31280 ft 504 kts 47°
2026-05-07 06:59 40.10626 4.73177 31589 ft 506 kts 48°
2026-05-07 06:59 40.12877 4.76720 31869 ft 508 kts 48°
2026-05-07 07:00 40.15144 4.80283 32158 ft 510 kts 48°
2026-05-07 07:00 40.17413 4.83852 32457 ft 511 kts 48°
2026-05-07 07:00 40.19692 4.87438 32703 ft 513 kts 48°
2026-05-07 07:00 40.21973 4.91035 32971 ft 515 kts 48°
2026-05-07 07:01 40.24263 4.94650 33301 ft 516 kts 48°
2026-05-07 07:01 40.26550 4.98262 33655 ft 515 kts 48°
2026-05-07 07:01 40.28832 5.01872 33961 ft 515 kts 47°
2026-05-07 07:01 40.31117 5.05492 34007 ft 515 kts 47°
2026-05-07 07:02 40.35664 5.12706 33993 ft 513 kts 47°
2026-05-07 07:02 40.40212 5.19937 33990 ft 514 kts 48°
2026-05-07 07:03 40.44762 5.27190 33992 ft 515 kts 47°
2026-05-07 07:03 40.49315 5.34463 33989 ft 516 kts 48°
2026-05-07 07:04 40.53864 5.41748 33990 ft 516 kts 48°
2026-05-07 07:04 40.58417 5.49056 33990 ft 516 kts 48°
2026-05-07 07:05 40.62958 5.56363 33990 ft 516 kts 48°
2026-05-07 07:05 40.67503 5.63693 33990 ft 516 kts 48°
2026-05-07 07:06 40.72041 5.71030 33989 ft 517 kts 48°
2026-05-07 07:06 40.76543 5.78325 33988 ft 516 kts 48°
2026-05-07 07:07 40.81068 5.85675 33987 ft 516 kts 48°
2026-05-07 07:07 40.85582 5.93026 33985 ft 515 kts 48°
2026-05-07 07:08 40.90089 6.00382 33988 ft 515 kts 48°
2026-05-07 07:08 40.94589 6.07744 33989 ft 516 kts 48°
2026-05-07 07:09 40.99104 6.15150 33991 ft 517 kts 49°
2026-05-07 07:09 41.03612 6.22561 33988 ft 516 kts 49°
2026-05-07 07:10 41.08107 6.29969 33990 ft 516 kts 49°
2026-05-07 07:10 41.12590 6.37375 33990 ft 515 kts 49°
2026-05-07 07:11 41.17069 6.44789 33993 ft 515 kts 49°
2026-05-07 07:11 41.21543 6.52211 33988 ft 514 kts 49°
2026-05-07 07:12 41.26058 6.59565 33990 ft 513 kts 47°
2026-05-07 07:12 41.30613 6.66878 33997 ft 513 kts 48°
2026-05-07 07:13 41.35160 6.74207 33998 ft 513 kts 48°
2026-05-07 07:13 41.39702 6.81546 34000 ft 513 kts 48°
2026-05-07 07:14 41.44238 6.88894 34003 ft 513 kts 48°
2026-05-07 07:14 41.48770 6.96251 33999 ft 513 kts 48°
2026-05-07 07:15 41.53294 7.03614 34000 ft 514 kts 48°
2026-05-07 07:15 41.57784 7.10941 33998 ft 513 kts 48°
2026-05-07 07:16 41.62304 7.18332 34000 ft 513 kts 49°
2026-05-07 07:16 41.66813 7.25726 34006 ft 513 kts 49°
2026-05-07 07:17 41.71321 7.33135 34008 ft 513 kts 49°
2026-05-07 07:17 41.75824 7.40553 34010 ft 513 kts 49°
2026-05-07 07:18 41.80322 7.47984 33997 ft 513 kts 49°
2026-05-07 07:18 41.84813 7.55419 34000 ft 513 kts 49°
2026-05-07 07:19 41.89295 7.62859 34007 ft 513 kts 50°
2026-05-07 07:19 41.93777 7.70316 34013 ft 512 kts 50°
2026-05-07 07:20 41.98238 7.77760 34018 ft 512 kts 50°
2026-05-07 07:20 42.02699 7.85217 34020 ft 512 kts 50°
2026-05-07 07:21 42.07154 7.92687 34019 ft 512 kts 50°
2026-05-07 07:21 42.11580 8.00125 34021 ft 512 kts 50°
2026-05-07 07:22 42.16053 8.07659 34015 ft 511 kts 50°
2026-05-07 07:22 42.20462 8.15106 34016 ft 512 kts 50°
2026-05-07 07:23 42.24890 8.22600 34017 ft 510 kts 50°
2026-05-07 07:23 42.29313 8.30103 34015 ft 511 kts 50°
2026-05-07 07:24 42.34370 8.36654 34003 ft 498 kts 24°
2026-05-07 07:24 42.40656 8.40432 34006 ft 488 kts 18°
2026-05-07 07:25 42.46817 8.43907 33226 ft 477 kts 17°
2026-05-07 07:25 42.49889 8.45616 32576 ft 478 kts 17°
2026-05-07 07:25 42.52962 8.47326 32029 ft 477 kts 17°
2026-05-07 07:26 42.56021 8.49029 31581 ft 473 kts 17°
2026-05-07 07:26 42.59048 8.50716 31134 ft 469 kts 17°
2026-05-07 07:26 42.62055 8.52394 30662 ft 465 kts 17°
2026-05-07 07:26 42.65043 8.54062 30165 ft 463 kts 17°
2026-05-07 07:27 42.68016 8.55725 29680 ft 461 kts 17°
2026-05-07 07:27 42.70967 8.57377 29220 ft 458 kts 17°
2026-05-07 07:27 42.73904 8.59023 28765 ft 454 kts 17°
2026-05-07 07:27 42.76816 8.60656 28315 ft 451 kts 17°
2026-05-07 07:28 42.79708 8.62279 27870 ft 448 kts 17°
2026-05-07 07:28 42.81614 8.63351 27579 ft 446 kts 18°
2026-05-07 07:28 42.84474 8.64958 27146 ft 443 kts 18°
2026-05-07 07:28 42.87311 8.66555 26718 ft 440 kts 18°
2026-05-07 07:29 42.90132 8.68145 26250 ft 438 kts 18°
2026-05-07 07:29 42.92945 8.69732 25768 ft 437 kts 18°
2026-05-07 07:29 42.95739 8.71309 25346 ft 433 kts 18°
2026-05-07 07:29 42.98518 8.72879 24910 ft 431 kts 18°
2026-05-07 07:30 43.01278 8.74439 24470 ft 428 kts 18°
2026-05-07 07:30 43.04027 8.75996 24041 ft 426 kts 18°
2026-05-07 07:30 43.06754 8.77542 23619 ft 423 kts 18°
2026-05-07 07:30 43.09466 8.79080 23198 ft 421 kts 19°
2026-05-07 07:31 43.12166 8.80613 22776 ft 419 kts 19°
2026-05-07 07:31 43.14849 8.82138 22360 ft 416 kts 19°
2026-05-07 07:31 43.17516 8.83655 21944 ft 414 kts 19°
2026-05-07 07:31 43.20170 8.85166 21531 ft 412 kts 19°
2026-05-07 07:32 43.22810 8.86671 21123 ft 410 kts 19°
2026-05-07 07:32 43.25432 8.88167 20718 ft 407 kts 19°
2026-05-07 07:32 43.28035 8.89653 20318 ft 404 kts 19°
2026-05-07 07:32 43.30626 8.91133 19914 ft 402 kts 19°
2026-05-07 07:33 43.33194 8.92603 19523 ft 399 kts 19°
2026-05-07 07:33 43.35745 8.94063 19115 ft 396 kts 19°
2026-05-07 07:33 43.38301 8.95427 18672 ft 391 kts 11°
2026-05-07 07:33 43.40958 8.95805 18300 ft 379 kts 354°
2026-05-07 07:34 43.43581 8.95805 17940 ft 376 kts 356°
2026-05-07 07:34 43.46183 8.95821 17570 ft 372 kts 356°
2026-05-07 07:34 43.48762 8.95827 17199 ft 369 kts 355°
2026-05-07 07:34 43.51325 8.95830 16830 ft 367 kts 355°
2026-05-07 07:35 43.53866 8.95832 16462 ft 363 kts 355°
2026-05-07 07:35 43.56382 8.95833 16094 ft 361 kts 356°
2026-05-07 07:35 43.58881 8.95834 15724 ft 358 kts 356°
2026-05-07 07:35 43.61361 8.95833 15360 ft 355 kts 356°
2026-05-07 07:36 43.63824 8.95877 14972 ft 354 kts
2026-05-07 07:36 43.66224 8.96501 14575 ft 356 kts
2026-05-07 07:36 43.68630 8.97223 14243 ft 352 kts
2026-05-07 07:36 43.71009 8.97927 13922 ft 348 kts
2026-05-07 07:37 43.73367 8.98621 13563 ft 345 kts
2026-05-07 07:37 43.75705 8.99306 13214 ft 342 kts
2026-05-07 07:37 43.78023 8.99987 12874 ft 339 kts
2026-05-07 07:37 43.80324 9.00663 12534 ft 336 kts
2026-05-07 07:38 43.82625 9.01058 12164 ft 331 kts
2026-05-07 07:38 43.84915 9.01311 11806 ft 329 kts
2026-05-07 07:38 43.87187 9.01586 11489 ft 326 kts
2026-05-07 07:38 43.89429 9.01871 11175 ft 323 kts
2026-05-07 07:39 43.91659 9.02163 10831 ft 321 kts
2026-05-07 07:39 43.93855 9.02055 10406 ft 314 kts 341°
2026-05-07 07:39 43.95751 9.00720 10091 ft 302 kts 317°
2026-05-07 07:39 43.97297 8.98837 10020 ft 289 kts 315°
2026-05-07 07:40 43.98784 8.97024 9867 ft 281 kts 315°
2026-05-07 07:40 44.00236 8.95232 9570 ft 278 kts 314°
2026-05-07 07:40 44.01673 8.93446 9247 ft 277 kts 315°
2026-05-07 07:40 44.03101 8.91663 8969 ft 275 kts 315°
2026-05-07 07:41 44.04519 8.89888 8657 ft 274 kts 315°
2026-05-07 07:41 44.05932 8.88115 8347 ft 273 kts 315°
2026-05-07 07:41 44.07336 8.86353 8048 ft 271 kts 315°
2026-05-07 07:41 44.08729 8.84602 7756 ft 270 kts 315°
2026-05-07 07:42 44.10113 8.82861 7465 ft 267 kts 315°
2026-05-07 07:42 44.11470 8.81154 7182 ft 266 kts 315°
2026-05-07 07:42 44.12833 8.79437 6907 ft 263 kts 315°
2026-05-07 07:42 44.14187 8.77731 6624 ft 261 kts 315°
2026-05-07 07:43 44.15524 8.76044 6361 ft 258 kts 315°
2026-05-07 07:43 44.16851 8.74370 6078 ft 257 kts 315°
2026-05-07 07:43 44.18170 8.72708 5791 ft 254 kts 315°
2026-05-07 07:43 44.19478 8.71057 5529 ft 255 kts 314°
2026-05-07 07:44 44.20803 8.69374 5293 ft 260 kts 315°
2026-05-07 07:44 44.22158 8.67666 4962 ft 264 kts 315°
2026-05-07 07:44 44.23515 8.65949 4665 ft 263 kts 315°
2026-05-07 07:44 44.24858 8.64254 4507 ft 256 kts 315°
2026-05-07 07:45 44.26152 8.62610 4379 ft 247 kts 315°
2026-05-07 07:45 44.27406 8.61019 4243 ft 240 kts 315°
2026-05-07 07:45 44.28793 8.59814 4045 ft 236 kts 342°
2026-05-07 07:45 44.30399 8.59725 3952 ft 228 kts 10°
2026-05-07 07:46 44.31898 8.60215 3908 ft 216 kts 13°
2026-05-07 07:46 44.33345 8.60715 3755 ft 212 kts 14°
2026-05-07 07:46 44.34718 8.61400 3607 ft 209 kts 36°
2026-05-07 07:46 44.35658 8.62899 3401 ft 205 kts 62°
2026-05-07 07:47 44.36395 8.64613 3276 ft 206 kts 60°
2026-05-07 07:47 44.37124 8.66298 3144 ft 195 kts 61°
2026-05-07 07:47 44.37789 8.67831 2986 ft 173 kts 60°
2026-05-07 07:47 44.38382 8.69223 2805 ft 163 kts 62°
2026-05-07 07:48 44.38936 8.70575 2504 ft 158 kts 63°
2026-05-07 07:48 44.39477 8.71897 2200 ft 155 kts 64°
2026-05-07 07:48 44.40006 8.73189 1877 ft 152 kts 63°
2026-05-07 07:48 44.40564 8.74411 1539 ft 148 kts 59°
2026-05-07 07:49 44.41150 8.75549 1218 ft 140 kts 59°
2026-05-07 07:49 44.41678 8.76645 991 ft 135 kts 63°
2026-05-07 07:49 44.42099 8.77822 798 ft 134 kts 76°
2026-05-07 07:49 44.42168 8.79114 609 ft 136 kts 100°
2026-05-07 07:50 44.41944 8.80413 469 ft 141 kts 106°
2026-05-07 07:50 44.41688 8.81729 203 ft 138 kts 105°
2026-05-07 07:50 44.41434 8.82971 28 ft 125 kts 105°
2026-05-07 07:50 44.41251 8.83898 23 ft 74 kts 106°
2026-05-07 07:51 44.41159 8.84374 25 ft 28 kts 105°
2026-05-07 07:51 44.41109 8.84625 26 ft 28 kts 105°
2026-05-07 07:51 44.41078 8.84796 21 ft 10 kts 88°
2026-05-07 07:51 44.41124 8.84863 22 ft 11 kts 30°
2026-05-07 07:52 44.41183 8.84896 26 ft 7 kts 15°
2026-05-07 07:52 44.41236 8.84917 23 ft 9 kts 15°
2026-05-07 07:52 44.41300 8.84942 22 ft 9 kts 15°
2026-05-07 07:52 44.41317 8.84948 22 ft 0 kts 15°
2026-05-07 07:53 44.41322 8.84950 22 ft 2 kts 15°
2026-05-07 07:53 44.41340 8.84964 22 ft 4 kts 45°
2026-05-07 07:53 44.41344 8.84991 24 ft 4 kts 91°
2026-05-07 07:54 44.41337 8.85037 22 ft 6 kts 105°
2026-05-07 07:54 44.41357 8.85083 25 ft 7 kts 19°
2026-05-07 07:54 44.41389 8.85096 24 ft 1 kts 15°
2026-05-07 07:54 44.41391 8.85097 22 ft 0 kts 15°